RH
77 55 54 32 28 31 36 22 22 22 38 36 34 38 35 45 42 48 67 71 87 91 84 95 92 88 88 89 89 89 90 88 87 88 89 89 88 87 86 86 84 82 77 76 75 75 74 71 72
44 34 33 34 30 28 22 25 17 16 29 38 36 40 41 47 62 77 71 82 83 89 84 94 93 88 88 91 91 90 87 89 90 88 87 86 86 86 84 84 86 83 78 77 76 77 76 73 76
42 30 34 35 45 31 26 23 31 41 38 35 41 43 44 50 67 68 75 83 89 91 86 94 94 89 88 92 93 91 92 93 94 92 87 85 85 85 85 88 88 84 78 77 77 77 74 76 82
28 33 35 37 49 30 24 21 18 30 32 42 43 48 47 49 62 63 77 85 94 93 95 97 95 91 89 93 94 94 94 95 94 93 91 87 85 85 87 90 89 84 77 76 75 74 76 81 84
35 37 40 47 37 27 23 19 18 19 31 42 48 59 58 56 64 74 80 79 95 99 98 95 95 91 89 93 95 96 95 95 94 93 93 91 88 88 91 91 90 88 83 78 78 78 80 83 85
34 33 40 45 33 24 20 19 17 22 45 51 54 59 64 66 72 73 72 82 90 98 97 95 94 92 90 94 96 97 96 95 94 93 94 94 92 91 90 90 90 91 89 88 85 85 85 85 86
32 32 35 38 28 24 20 16 17 30 49 49 51 64 68 66 67 64 70 86 96 98 97 98 96 93 94 96 96 97 96 95 94 94 94 94 93 92 92 91 91 91 90 88 87 88 87 86 86
28 28 34 30 27 24 19 16 18 34 39 45 44 60 68 59 63 65 81 92 97 99 96 92 98 97 97 96 96 96 96 95 95 94 95 96 94 94 93 92 91 90 92 90 90 90 89 87 86
26 31 34 28 26 21 18 17 16 31 42 45 46 50 49 56 66 77 90 94 97 98 98 92 92 98 98 98 95 95 94 95 95 95 96 97 98 96 94 94 92 90 90 91 89 88 88 88 89
28 34 27 22 23 21 17 20 19 34 46 51 55 49 54 60 66 75 80 81 87 95 99 97 94 97 98 88 96 97 95 97 97 98 97 98 97 97 91 93 92 88 88 88 88 89 90 90 94
30 31 26 22 20 20 18 16 20 24 32 47 56 55 65 64 66 73 72 75 78 79 92 98 98 98 97 91 98 99 99 99 99 98 98 98 95 98 98 98 96 96 91 96 94 94 95 91 90
28 22 22 22 20 19 18 18 18 19 17 18 53 47 64 67 66 70 73 74 80 82 83 95 97 98 96 95 97 97 99 99 99 98 97 99 99 98 98 97 94 96 97 96 95 95 90 87 86
25 23 22 20 22 20 18 18 19 19 16 19 52 47 57 65 65 65 68 73 76 80 79 91 94 96 94 96 96 98 97 97 95 98 97 98 98 98 97 97 96 97 95 95 87 85 89 90 90
24 26 26 26 21 23 21 19 21 16 19 40 54 52 53 58 62 71 79 81 85 77 79 82 87 88 89 91 94 93 92 94 97 95 95 96 97 97 98 98 98 97 94 94 93 92 95 95 90
27 29 29 25 25 21 19 21 20 16 19 49 60 56 53 53 56 65 73 80 80 76 76 80 79 81 85 86 87 86 87 89 91 90 96 94 96 97 96 98 98 96 96 94 96 95 93 68 66
32 36 38 26 25 20 19 26 19 17 18 18 51 61 57 54 53 55 60 70 75 75 80 78 72 77 78 80 82 78 82 84 85 86 92 95 95 95 97 97 95 89 93 94 93 82 75 76 71
44 42 38 28 22 21 20 28 19 17 19 17 21 48 57 56 54 53 54 59 66 73 76 81 79 78 78 78 82 83 84 84 84 87 91 95 93 95 96 96 97 89 91 91 80 80 76 74 65
46 41 33 31 25 21 22 24 21 18 21 19 18 20 38 52 52 51 51 53 55 66 71 78 81 80 79 82 86 90 91 90 88 90 92 94 93 94 92 94 97 97 89 82 77 74 75 65 60
34 35 37 34 25 24 26 25 23 20 18 20 18 17 20 26 37 44 47 50 53 60 68 78 84 84 85 89 92 92 93 94 94 90 92 92 92 92 90 93 96 91 82 79 72 66 57 65 67
39 39 35 30 27 27 23 21 17 20 18 18 18 17 18 20 19 19 39 45 49 55 66 72 80 83 86 83 85 86 87 93 90 94 95 91 91 91 90 93 88 85 80 78 70 64 71 70 75
37 39 32 32 28 26 30 26 19 17 21 18 20 19 19 19 17 18 24 36 40 47 62 71 75 80 85 82 84 97 98 99 99 98 95 96 92 91 91 88 84 81 74 71 68 64 60 68 75
32 28 29 28 33 31 26 33 19 20 21 21 19 20 19 18 20 19 18 29 30 38 43 61 71 75 85 85 86 88 87 88 87 87 93 96 94 94 91 83 80 76 74 68 66 64 66 67 71
30 32 31 31 32 33 29 34 23 27 23 22 21 20 20 18 18 18 19 20 32 38 46 57 70 75 84 88 84 89 87 81 83 85 95 96 95 91 83 80 78 75 72 70 66 71 69 70 77
32 40 36 32 49 71 33 32 27 23 22 22 20 19 18 17 17 17 17 17 28 50 52 68 76 80 85 89 85 89 88 86 93 92 98 96 91 86 79 74 81 77 71 68 70 73 72 77 79
38 50 68 60 75 81 48 33 25 24 21 20 19 20 22 21 20 20 18 19 20 62 72 75 80 88 88 90 88 88 87 85 92 93 94 94 89 81 80 72 85 78 68 71 73 78 79 80 82
43 46 76 82 74 53 42 60 42 25 22 23 24 26 23 22 20 22 20 22 22 32 74 78 79 84 90 90 90 87 86 86 92 93 91 91 84 77 79 78 80 76 72 72 77 82 85 82 89
50 57 46 61 58 65 57 47 35 29 29 30 29 25 24 21 19 24 29 30 29 28 40 70 78 81 87 90 90 89 88 86 91 93 91 88 83 84 84 80 77 74 74 73 76 79 88 88 90
50 46 68 65 95 87 59 62 54 40 40 36 38 38 34 32 28 30 29 32 35 31 28 46 70 75 83 89 89 88 89 89 90 92 91 87 83 82 81 76 75 73 76 75 76 82 84 84 88
59 64 59 62 79 92 92 69 40 45 57 52 45 49 48 45 39 34 30 28 28 33 39 34 57 77 81 88 88 88 90 91 91 90 88 86 86 81 77 74 75 75 77 77 77 78 78 78 82
54 68 76 96 90 94 96 73 42 56 36 31 48 43 40 38 40 38 33 32 38 39 49 53 63 79 81 86 87 88 93 92 92 88 88 87 84 81 76 73 69 71 73 74 73 72 76 80 82
Wind_Speed
4 1 1 5 5 6 3 6 4 3 4 4 8 5 8 1 4 5 2 6 17 15 17 13 16 18 18 18 16 15 15 16 15 13 12 12 12 13 12 11 10 11 12 12 11 12 12 11 11
2 3 4 3 6 3 6 4 5 7 4 8 5 2 2 1 3 6 8 8 16 14 15 12 16 18 18 18 16 15 15 15 14 13 12 12 12 12 11 10 9 9 11 11 10 9 9 9 9
2 3 4 5 3 2 4 3 5 2 10 9 5 1 1 4 2 9 7 14 13 12 14 12 15 17 17 17 16 14 14 14 14 13 12 11 11 11 11 9 7 8 10 9 8 7 6 7 6
2 5 5 5 3 7 6 4 3 6 5 3 5 4 1 4 7 8 15 15 13 12 9 13 15 16 16 17 15 14 13 13 13 13 13 11 10 10 8 7 7 7 7 7 7 6 5 5 6
4 3 4 3 5 7 6 8 10 9 4 6 5 5 3 4 8 16 17 14 14 9 8 11 13 16 16 16 15 13 12 12 12 14 14 12 10 9 8 7 7 6 6 5 5 3 2 4 6
4 4 5 1 5 7 7 5 7 7 3 3 3 4 2 3 11 12 14 12 11 12 10 10 13 14 15 15 14 13 12 11 11 11 12 12 11 10 7 6 7 7 6 4 3 1 2 5 6
6 4 4 3 4 7 5 8 3 4 8 4 5 4 2 2 6 12 9 9 9 9 11 8 8 11 13 13 13 13 12 11 10 10 11 11 10 10 9 8 7 6 5 4 3 0 3 5 6
5 5 1 4 3 6 5 8 4 2 3 4 6 6 6 6 9 9 9 7 8 8 10 12 8 7 7 8 12 13 13 12 11 10 9 9 9 9 9 8 7 7 7 5 3 2 3 5 6
3 5 2 4 3 6 3 7 8 2 6 2 3 7 4 20 14 11 8 4 5 5 10 12 12 9 8 7 9 12 13 12 10 8 8 6 4 5 6 6 7 7 6 5 4 3 3 6 5
5 4 8 5 2 5 8 2 3 3 3 2 4 6 15 18 17 16 15 13 11 11 8 11 12 11 9 7 7 6 7 6 5 5 6 4 4 4 4 5 6 8 7 6 4 4 4 5 3
4 6 5 6 7 7 6 6 2 6 3 5 5 15 16 15 12 12 13 15 16 12 9 10 11 9 10 8 6 4 4 4 4 6 5 5 4 3 3 2 2 3 5 3 3 2 2 4 3
2 6 4 4 2 6 5 4 4 5 5 4 11 20 16 17 16 17 14 13 12 11 11 9 9 11 10 5 7 6 5 4 5 6 6 5 3 4 4 3 4 4 3 4 3 2 3 4 5
4 4 4 6 8 5 6 8 4 5 8 1 9 16 18 15 15 13 11 10 12 14 12 12 10 10 10 9 7 6 7 6 7 6 6 5 4 5 4 4 4 3 3 4 4 3 3 3 3
3 4 7 5 7 5 4 5 2 6 6 5 13 17 16 19 20 11 11 14 15 14 17 15 16 14 12 11 11 9 7 7 6 6 6 8 5 4 4 4 4 4 4 4 4 3 2 2 3
5 8 5 4 4 5 4 6 9 7 5 8 11 15 15 19 14 19 21 18 19 18 17 20 20 18 17 17 13 11 9 9 8 7 8 9 8 6 6 4 4 5 4 5 4 3 3 4 4
4 1 5 4 1 4 7 10 10 8 4 7 11 9 14 18 21 20 16 19 18 16 21 19 17 20 18 16 12 10 11 10 9 9 7 10 10 8 6 5 5 5 5 4 3 4 4 4 4
5 4 5 9 6 4 7 5 5 6 4 9 7 10 14 16 17 17 17 19 19 20 19 19 18 20 20 16 11 10 10 10 9 8 8 11 11 10 8 6 5 6 5 4 4 2 3 3 3
7 6 5 8 3 3 10 10 8 10 5 9 11 9 13 17 22 23 23 20 19 19 18 17 15 17 17 11 10 8 8 9 8 9 9 10 9 10 9 6 6 5 4 4 3 4 2 3 3
4 5 8 3 1 5 6 10 10 9 12 7 11 13 10 17 23 21 22 20 18 14 16 18 18 18 13 12 13 12 14 10 9 8 10 11 10 11 11 7 7 6 7 7 6 4 4 2 1
6 8 17 8 5 3 12 20 17 8 12 10 12 13 13 6 10 16 20 21 20 19 19 17 20 18 17 14 14 10 10 8 9 7 9 11 12 12 11 10 9 9 7 7 6 5 4 3 1
11 14 16 10 6 7 4 19 20 15 7 10 8 11 9 11 13 9 13 19 22 21 18 20 22 22 20 18 11 4 4 3 5 9 10 11 13 14 12 11 10 10 9 9 7 6 7 5 1
12 4 11 10 2 10 4 10 21 8 9 7 11 8 11 12 9 9 8 10 18 23 22 21 21 22 20 20 17 21 15 15 14 10 8 9 12 12 11 12 12 12 7 9 7 6 5 6 5
9 2 7 6 9 7 14 5 21 2 10 8 9 11 9 10 10 11 10 9 14 15 18 21 21 19 19 21 21 17 17 13 9 9 11 11 8 11 11 11 12 11 8 7 9 7 7 4 5
7 3 4 6 4 8 20 8 28 14 12 5 5 10 11 12 10 10 10 8 7 10 12 10 13 18 20 21 23 24 23 17 11 13 10 10 8 8 10 12 12 11 10 10 8 6 7 5 5
6 1 3 5 7 13 13 9 27 5 9 8 10 10 10 10 10 11 10 8 8 8 12 13 16 19 21 22 23 23 23 20 17 15 13 14 10 8 12 12 11 9 10 9 9 8 6 6 5
5 6 6 6 4 12 6 12 27 20 17 13 9 9 13 15 13 9 9 8 9 9 12 15 17 21 19 20 24 21 21 14 13 15 11 11 12 11 10 10 10 10 11 10 9 6 5 6 5
3 3 3 5 9 9 7 10 17 17 11 9 10 15 18 19 20 16 14 13 12 11 10 16 19 22 21 25 20 21 19 19 17 16 13 10 9 8 12 13 11 11 12 12 11 8 7 6 5
3 3 3 1 5 5 8 8 15 13 14 16 13 16 18 16 17 14 13 12 10 12 13 13 20 24 25 22 20 18 20 18 16 14 15 14 12 14 15 14 13 12 10 10 10 8 7 8 4
5 3 4 2 2 3 5 6 9 5 8 13 16 15 16 18 19 18 17 18 18 15 14 16 18 22 20 19 19 19 17 17 15 15 16 16 13 15 16 15 15 14 13 12 10 10 11 10 8
2 3 3 3 4 3 5 12 8 5 18 17 15 18 19 18 16 18 20 17 13 16 18 17 16 19 20 19 18 18 15 16 15 16 16 15 15 15 16 16 17 16 12 10 12 11 10 11 9
Wind_Direction
305 329 149 40 44 61 271 275 276 13 113 201 128 154 201 118 175 211 81 132 129 144 158 158 150 142 139 133 133 133 131 128 122 116 110 110 113 113 115 114 116 115 114 108 103 97 89 85 80
310 122 41 79 77 39 284 253 258 225 157 111 112 89 236 199 115 115 114 142 136 143 153 157 150 146 143 138 138 140 141 136 130 125 123 122 122 122 121 121 119 120 118 117 113 102 89 83 78
236 60 79 87 101 209 269 257 2 315 151 125 132 97 224 181 66 156 122 135 130 138 153 155 149 149 144 140 140 145 143 142 135 133 132 129 128 130 131 128 119 126 124 121 113 100 82 72 61
103 13 37 80 249 256 224 273 40 358 335 323 149 112 54 229 163 150 133 136 128 139 145 148 148 147 144 142 145 146 148 147 144 140 139 137 140 137 136 134 130 125 120 115 106 87 59 44 37
42 57 55 27 277 262 247 252 166 201 220 184 170 162 79 8 98 130 138 141 135 130 135 151 151 146 146 147 148 148 152 156 156 152 146 146 149 146 145 146 144 133 123 115 104 91 51 22 20
43 100 53 305 258 276 279 252 165 183 129 151 109 87 58 119 130 147 141 138 135 142 141 153 155 147 148 151 149 150 157 166 165 160 151 152 154 150 154 158 158 152 136 129 116 71 5 3 5
117 88 197 245 263 308 278 306 109 168 149 175 154 89 20 207 150 140 128 117 122 133 141 147 153 150 150 152 151 155 161 171 174 169 162 158 159 161 163 168 165 160 156 154 155 252 342 348 349
108 96 192 251 270 279 284 336 42 128 190 103 145 168 193 187 150 114 102 109 123 135 151 158 146 150 154 164 158 162 168 175 179 178 172 167 169 174 181 183 186 181 177 184 185 236 293 315 327
111 61 215 239 241 280 326 0 347 339 127 119 175 159 193 139 132 120 112 92 129 151 163 165 166 160 157 161 172 170 174 178 179 179 177 167 173 187 194 195 201 199 201 207 214 239 288 305 315
108 139 223 218 258 319 301 348 316 61 331 343 75 63 120 143 155 157 166 171 175 176 179 174 171 171 161 169 169 172 179 180 180 176 175 170 186 198 201 209 207 210 209 216 230 253 284 312 319
171 193 234 271 272 260 269 304 142 117 235 231 199 147 146 156 167 173 179 180 184 185 175 179 172 170 170 173 167 177 179 176 182 183 179 177 178 204 217 223 231 218 224 226 212 246 264 284 294
299 238 220 280 323 312 263 294 307 153 223 253 178 164 155 171 181 181 185 185 174 178 187 180 180 170 179 169 176 178 181 187 189 194 180 174 185 198 208 208 214 210 211 233 224 225 231 259 279
234 255 230 271 285 251 294 268 226 233 237 180 149 164 173 181 192 194 186 183 182 183 183 182 180 186 179 175 180 184 193 191 199 194 187 179 188 204 197 211 197 206 197 206 218 223 224 239 264
269 277 282 262 267 252 246 268 297 256 168 141 164 183 185 188 194 181 183 190 190 187 191 181 185 188 186 187 185 188 192 195 198 200 195 193 189 204 201 214 205 202 198 206 216 213 171 148 83
283 308 320 262 237 237 179 288 233 249 121 171 195 192 195 206 188 196 193 194 192 198 188 191 189 186 191 194 188 188 192 192 200 205 195 192 197 194 201 208 209 214 196 208 191 131 94 91 86
345 4 333 286 104 254 159 258 268 274 229 239 209 209 209 211 205 207 200 203 201 196 198 194 189 192 195 200 197 195 192 194 199 201 197 196 194 195 189 205 215 199 174 174 148 133 109 101 104
360 256 268 300 229 239 202 244 269 316 181 269 206 210 212 220 223 222 212 206 200 203 199 198 195 195 196 196 192 199 200 202 203 203 199 195 196 193 188 189 198 167 160 150 152 115 134 123 110
198 225 255 249 314 342 296 271 279 289 270 256 277 211 222 221 220 215 216 210 208 203 201 203 198 196 193 188 190 194 201 207 203 204 205 196 192 186 186 181 170 158 138 134 130 133 79 124 137
190 230 248 240 343 356 277 297 284 286 288 264 273 277 207 225 232 222 218 218 215 205 202 199 194 198 183 187 191 196 205 200 207 206 198 198 193 189 187 178 163 155 161 167 152 121 121 78 129
231 247 261 289 248 247 300 287 282 265 268 248 245 266 265 223 225 231 226 216 212 206 202 198 200 193 195 193 197 201 198 207 202 196 202 202 192 189 185 172 172 167 146 155 161 150 127 108 117
228 230 257 264 336 263 282 282 284 269 256 281 245 244 272 257 265 233 208 220 208 212 199 199 199 197 197 196 185 136 121 110 179 200 202 201 190 187 185 173 166 168 161 170 170 165 149 144 137
245 192 254 276 291 271 143 279 279 290 258 251 281 256 257 273 264 257 227 198 214 217 213 206 202 199 197 188 188 189 197 200 208 201 196 189 187 187 178 172 168 170 165 163 167 162 156 131 158
261 328 275 262 257 288 254 250 272 212 260 256 259 275 269 261 270 272 246 221 208 234 219 207 202 200 196 195 194 192 201 208 194 194 188 185 179 180 176 175 168 168 164 161 157 155 154 150 142
306 309 308 260 62 281 265 206 279 248 261 236 259 272 269 288 285 286 285 289 217 215 220 214 214 210 197 195 197 196 199 196 187 186 181 187 182 181 181 176 178 175 158 161 157 148 150 146 128
208 217 293 234 182 232 236 258 254 236 278 266 280 287 299 291 291 289 286 294 282 217 214 205 200 208 204 201 200 200 199 195 191 184 189 178 178 190 190 178 173 176 156 152 144 143 144 146 141
197 187 187 228 206 265 186 210 245 261 272 293 299 284 295 307 306 288 294 280 260 232 218 210 208 216 205 203 208 202 197 195 191 188 190 194 188 181 167 169 167 171 155 150 142 135 134 144 140
302 251 244 267 267 273 254 286 294 284 298 308 304 307 297 295 296 293 314 316 309 305 251 221 214 219 207 204 202 203 194 190 189 178 188 191 181 168 174 164 166 168 161 153 146 142 134 131 126
194 222 321 292 298 240 246 226 249 288 298 302 332 331 323 320 316 305 301 302 297 297 291 246 226 218 210 205 199 201 198 184 180 171 174 180 172 169 168 167 169 164 157 146 137 132 126 121 114
343 349 342 306 218 239 276 259 242 314 34 349 323 311 305 306 308 303 297 295 291 296 294 275 235 220 210 200 199 197 197 183 172 175 178 180 176 175 175 171 163 162 158 154 139 135 131 124 121
155 221 182 196 305 276 273 267 272 25 343 333 310 297 301 303 308 304 302 302 294 296 301 284 242 215 205 196 192 193 186 180 175 180 181 177 179 179 176 172 165 159 148 145 135 135 131 127 122